EB2EMZ-15 Weather Reports


time (UTC)temp
C
wind
direction
speed
KPH
gust
KPH
rain 1hr
cm
rain 24hr
cm
rain mn
cm
humidity
%
barometer
mb
20260503190025 16 338 0.0 0.0 0.00 0.00 0.00 81 990.4
20260503185524 16 338 0.0 0.0 0.00 0.00 0.00 81 990.4
20260503185026 16 338 0.0 0.0 0.00 0.00 0.00 81 990.3
20260503184524 16 338 0.0 0.0 0.00 0.00 0.00 81 990.2
20260503184028 16 338 0.0 0.0 0.00 0.00 0.00 81 990.5
20260503183524 16 338 0.0 0.0 0.00 0.00 0.00 81 990.4
20260503183028 16 338 0.0 0.0 0.00 0.00 0.00 81 990.4
20260503182524 16 338 0.0 0.0 0.00 0.00 0.00 80 990.4
20260503182027 16 338 0.0 0.0 0.00 0.00 0.00 80 990.2
20260503181524 16 163 0.0 0.0 0.00 0.00 0.00 80 990.3
20260503181027 16 54 0.0 0.0 0.00 0.00 0.00 80 990.2
20260503180524 16 90 0.0 0.0 0.00 0.00 0.00 80 989.9
20260503180024 16 90 0.0 0.0 0.00 0.00 0.00 80 989.8
20260503175524 16 90 0.0 0.0 0.00 0.00 0.00 80 989.8
20260503175026 16 90 0.0 0.0 0.00 0.00 0.00 79 989.8
20260503174525 16 90 0.0 0.0 0.00 0.00 0.00 79 989.8
20260503174027 16 90 0.0 0.0 0.00 0.00 0.00 79 989.7
20260503173524 16 90 0.0 0.0 0.00 0.00 0.00 79 989.8
20260503173026 16 158 0.0 0.0 0.00 0.00 0.00 77 989.6
20260503172523 16 338 0.0 0.0 0.00 0.00 0.00 77 989.4
20260503172026 17 0 0.0 0.0 0.00 0.00 0.00 76 989.4
20260503171524 17 0 0.0 0.0 0.00 0.00 0.00 75 989.5
20260503171026 18 0 1.6 8.0 0.00 0.00 0.00 74 989.6
20260503170523 18 132 0.0 0.0 0.00 0.00 0.00 72 989.3
20260503150524 21 171 0.0 8.0 0.00 0.00 0.00 63 988.6
20260503131027 20 180 0.0 0.0 0.00 0.00 0.00 64 990.7
20260503130524 20 180 0.0 0.0 0.00 0.00 0.00 65 991.0
20260503110523 21 143 0.0 0.0 0.00 0.00 0.00 61 992.1
20260503081523 27 112 0.0 0.0 0.00 0.00 0.00 54 992.1
20260503081026 27 112 0.0 0.0 0.00 0.00 0.00 54 992.0
20260503080523 27 112 0.0 0.0 0.00 0.00 0.00 56 991.9
20260503072523 21 338 0.0 0.0 0.00 0.00 0.00 74 991.9
20260503072025 20 338 0.0 0.0 0.00 0.00 0.00 75 992.0
20260503071523 20 338 0.0 0.0 0.00 0.00 0.00 76 992.1
20260503071025 20 338 0.0 0.0 0.00 0.00 0.00 74 992.2
20260503070523 20 338 0.0 0.0 0.00 0.00 0.00 74 992.2
20260503055025 12 338 0.0 0.0 0.00 0.00 0.00 90 992.1
20260503054522 12 338 0.0 0.0 0.00 0.00 0.00 90 992.1
20260503054025 12 338 0.0 0.0 0.00 0.00 0.00 90 992.1
20260503053523 12 338 0.0 0.0 0.00 0.00 0.00 90 992.0
20260503053026 12 338 0.0 0.0 0.00 0.00 0.00 90 991.9
20260503052522 12 338 0.0 0.0 0.00 0.00 0.00 90 991.9
20260503052025 12 338 0.0 0.0 0.00 0.00 0.00 90 992.0
20260503051522 12 338 0.0 0.0 0.00 0.00 0.00 90 991.7
20260503051025 12 338 0.0 0.0 0.00 0.00 0.00 90 991.9
20260503050523 12 338 0.0 0.0 0.00 0.00 0.00 90 991.9
20260503050022 12 338 0.0 0.0 0.00 0.00 0.00 90 992.0
20260503045029 12 338 0.0 0.0 0.00 0.00 0.00 90 992.0
20260503044522 12 338 0.0 0.0 0.00 0.00 0.00 90 991.8
20260503044025 12 338 0.0 0.0 0.00 0.00 0.00 90 991.8
20260503043523 12 338 0.0 0.0 0.00 0.00 0.00 90 991.9
20260503043024 12 338 0.0 0.0 0.00 0.00 0.00 90 991.9
20260503042523 12 338 0.0 0.0 0.00 0.00 0.00 90 992.0
20260503042025 12 338 0.0 0.0 0.00 0.00 0.00 90 991.9
20260503041522 12 338 0.0 0.0 0.00 0.00 0.00 90 991.8
20260503041025 12 338 0.0 0.0 0.00 0.00 0.00 90 992.0
20260503040522 12 338 0.0 0.0 0.00 0.00 0.00 90 991.9
20260503040022 12 338 0.0 0.0 0.00 0.00 0.00 90 991.9
20260503035522 12 338 0.0 0.0 0.00 0.00 0.00 90 991.9
20260503035025 12 338 0.0 0.0 0.00 0.00 0.00 90 991.9
20260503034523 12 338 0.0 0.0 0.00 0.00 0.00 89 991.9
20260503034025 12 68 0.0 0.0 0.00 0.00 0.00 89 992.0
20260503033523 12 68 0.0 0.0 0.00 0.00 0.00 89 992.0
20260503033025 12 68 0.0 0.0 0.00 0.00 0.00 89 991.9
20260503032522 12 68 0.0 0.0 0.00 0.00 0.00 89 992.0
20260503032025 12 68 0.0 0.0 0.00 0.00 0.00 89 992.0
20260503031522 12 68 0.0 0.0 0.00 0.00 0.00 89 992.0
20260503031025 12 68 0.0 0.0 0.00 0.00 0.00 89 992.1
20260503030522 12 68 0.0 0.0 0.00 0.00 0.00 89 992.2
20260503030022 12 68 0.0 0.0 0.00 0.00 0.00 89 992.2
20260503025523 12 90 0.0 0.0 0.00 0.00 0.00 89 992.2
20260503025025 13 104 0.0 0.0 0.00 0.00 0.00 89 992.1
20260503024522 13 0 0.0 0.0 0.00 0.00 0.00 89 992.1
20260503024025 13 0 0.0 0.0 0.00 0.00 0.00 89 992.1
20260503023522 13 0 0.0 0.0 0.00 0.00 0.00 89 992.1
20260503023025 13 45 0.0 0.0 0.00 0.00 0.00 89 992.1
20260503022522 13 90 0.0 0.0 0.00 0.00 0.00 89 992.3
20260503022025 13 90 0.0 0.0 0.00 0.00 0.00 89 992.3
20260503021523 13 102 0.0 0.0 0.00 0.00 0.00 88 992.5
20260503021025 13 112 0.0 0.0 0.00 0.00 0.00 88 992.5
20260503020523 13 112 0.0 0.0 0.00 0.00 0.00 88 992.6
20260503020022 13 22 0.0 0.0 0.00 0.00 0.00 88 992.5
20260503015522 13 69 0.0 0.0 0.00 0.00 0.00 88 992.5
20260503015025 13 68 0.0 0.0 0.00 0.00 0.00 88 992.7
20260503014522 13 112 0.0 0.0 0.00 0.00 0.00 88 992.7
20260503014025 13 90 0.0 0.0 0.00 0.00 0.00 88 992.6
20260503013523 13 68 0.0 0.0 0.00 0.00 0.00 88 992.7
20260503013025 13 112 0.0 0.0 0.00 0.00 0.00 88 992.7
20260503012522 13 112 0.0 0.0 0.00 0.00 0.00 88 992.7
20260503012025 13 90 0.0 0.0 0.00 0.00 0.00 88 992.8
20260503011523 13 90 0.0 0.0 0.00 0.00 0.00 88 992.8
20260503011025 13 90 0.0 0.0 0.00 0.00 0.00 88 993.0
20260503010522 13 107 0.0 0.0 0.00 0.00 0.00 88 993.0
20260503010022 13 112 0.0 0.0 0.00 0.00 0.00 88 993.0
20260503005522 13 112 0.0 0.0 0.00 0.00 0.00 88 993.0
20260503005024 13 112 0.0 0.0 0.00 0.00 0.00 88 993.0
20260503004522 13 45 0.0 0.0 0.00 0.00 0.00 88 993.0
20260503004025 13 45 0.0 0.0 0.00 0.00 0.00 88 993.0
20260503003522 13 45 0.0 0.0 0.00 0.00 0.00 88 993.0
20260503003024 13 45 0.0 0.0 0.00 0.00 0.00 88 992.9
20260503002522 14 45 0.0 0.0 0.00 0.00 0.00 88 993.1
20260503002025 14 45 0.0 0.0 0.00 0.00 0.00 88 993.0
20260503001522 14 45 0.0 0.0 0.00 0.00 0.00 88 993.0
20260503001026 14 45 0.0 0.0 0.00 0.00 0.00 88 993.0
20260503000522 14 45 0.0 0.0 0.00 0.00 0.00 88 993.2
20260503000021 14 45 0.0 0.0 0.00 0.00 0.00 88 993.2
20260502235523 14 45 0.0 0.0 0.00 0.00 0.00 88 993.2
20260502235027 14 45 0.0 0.0 0.00 0.00 0.00 88 993.2
20260502234522 14 45 0.0 0.0 0.00 0.00 0.00 87 993.2
20260502234025 14 112 0.0 0.0 0.00 0.00 0.00 87 993.2
20260502233523 14 112 0.0 0.0 0.00 0.00 0.00 87 993.3
20260502233025 15 112 0.0 0.0 0.00 0.00 0.00 87 993.3
20260502232521 15 112 0.0 0.0 0.00 0.00 0.00 87 993.3
20260502232024 15 112 0.0 0.0 0.00 0.00 0.00 87 993.3
20260502231522 15 112 0.0 0.0 0.00 0.00 0.00 87 993.2
20260502231026 15 112 0.0 0.0 0.00 0.00 0.00 87 993.2
20260502230522 15 112 0.0 0.0 0.00 0.00 0.00 87 993.3
20260502225522 15 112 0.0 0.0 0.00 0.00 0.00 87 993.3
20260502225025 15 112 0.0 0.0 0.00 0.00 0.00 87 993.5
20260502224521 15 112 0.0 0.0 0.00 0.00 0.00 87 993.3
20260502224026 15 112 0.0 0.0 0.00 0.00 0.00 87 993.4
20260502223522 15 112 0.0 0.0 0.00 0.00 0.00 87 993.3
20260502223024 15 112 0.0 0.0 0.00 0.00 0.00 87 993.3
20260502222523 15 112 0.0 0.0 0.00 0.00 0.00 87 993.3
20260502222025 15 112 0.0 0.0 0.00 0.00 0.00 87 993.3
20260502221522 14 112 0.0 0.0 0.00 0.00 0.00 87 993.2
20260502221025 15 112 0.0 0.0 0.00 0.00 0.00 87 993.3
20260502220523 15 112 0.0 0.0 0.00 0.00 0.00 87 993.3
20260502220022 15 112 0.0 0.0 0.00 0.00 0.00 87 993.3
20260502215522 15 115 0.0 0.0 0.00 0.00 0.00 87 993.2
20260502215025 15 135 0.0 0.0 0.00 0.00 0.00 87 993.1
20260502214522 15 135 0.0 0.0 0.00 0.00 0.00 87 993.2
20260502214025 15 135 0.0 0.0 0.00 0.00 0.00 87 993.1
20260502213522 15 135 0.0 0.0 0.00 0.00 0.00 87 993.1
20260502213025 15 135 0.0 0.0 0.00 0.00 0.00 87 993.3
20260502212522 15 135 0.0 0.0 0.00 0.00 0.00 87 993.3
20260502212024 15 135 0.0 0.0 0.00 0.00 0.00 87 993.2
20260502211521 15 112 0.0 0.0 0.00 0.00 0.00 87 993.1
20260502211024 15 112 0.0 0.0 0.00 0.00 0.00 87 993.1
20260502210522 15 42 0.0 0.0 0.00 0.00 0.00 87 993.2
20260502210022 15 94 0.0 0.0 0.00 0.00 0.00 87 993.1
20260502205521 15 112 0.0 0.0 0.00 0.00 0.00 86 993.1
20260502205031 15 112 0.0 0.0 0.00 0.00 0.00 86 993.1
20260502204521 15 68 0.0 0.0 0.00 0.00 0.00 86 993.1
20260502204024 15 68 0.0 0.0 0.00 0.00 0.00 86 992.9
20260502203522 15 68 0.0 0.0 0.00 0.00 0.00 85 993.0
20260502203024 15 68 0.0 0.0 0.00 0.00 0.00 85 993.1
20260502202522 15 70 0.0 0.0 0.00 0.00 0.00 85 993.0
20260502202024 16 135 0.0 0.0 0.00 0.00 0.00 85 992.9
20260502201521 16 135 0.0 0.0 0.00 0.00 0.00 85 992.9
20260502201024 16 158 0.0 0.0 0.00 0.00 0.00 85 992.9
20260502200522 16 158 0.0 0.0 0.00 0.00 0.00 85 992.8
20260502200022 16 158 0.0 0.0 0.00 0.00 0.00 85 992.8
20260502195521 16 158 0.0 0.0 0.00 0.00 0.00 85 992.7
20260502195024 16 158 0.0 0.0 0.00 0.00 0.00 85 992.8
20260502194521 16 158 0.0 0.0 0.00 0.00 0.00 85 992.7
20260502194025 16 158 0.0 0.0 0.00 0.00 0.00 84 992.6
20260502193521 16 158 0.0 0.0 0.00 0.00 0.00 84 992.7
20260502193024 16 158 0.0 0.0 0.00 0.00 0.00 84 992.6
20260502192522 16 158 0.0 0.0 0.00 0.00 0.00 84 992.5
20260502192024 17 158 0.0 0.0 0.00 0.00 0.00 84 992.3
20260502191521 17 158 0.0 0.0 0.00 0.00 0.00 84 992.4
20260502191023 17 158 0.0 0.0 0.00 0.00 0.00 84 992.4
20260502190521 17 158 0.0 0.0 0.00 0.00 0.00 83 992.5